DB0OHA-13 Weather Reports


time (UTC)temp
C
wind
direction
speed
KPH
gust
KPH
rain 1hr
cm
rain 24hr
cm
rain mn
cm
humidity
%
barometer
mb
20260506134113 15 265 0.0 0.0 0.05 4.24 3.45 1 1004.8
20260506133113 15 264 1.6 9.7 0.15 4.24 3.45 1 1004.8
20260506132113 15 41 0.0 0.0 0.23 4.24 3.45 1 1004.7
20260506131113 14 41 0.0 0.0 0.46 4.24 3.45 1 1004.6
20260506130113 13 41 0.0 0.0 0.46 4.24 3.45 1 1004.5
20260506125113 13 41 0.0 0.0 0.43 4.22 3.43 1 1004.6
20260506124113 13 41 0.0 0.0 0.48 4.19 3.43 1 1004.6
20260506122113 13 41 0.0 0.0 0.51 4.01 3.25 1 1004.5
20260506121112 13 41 0.0 0.0 0.36 3.78 3.00 1 1004.5
20260506120112 13 41 1.6 6.4 0.48 3.78 3.00 1 1004.4
20260506115112 13 40 0.0 3.2 0.51 3.78 3.00 1 1004.4
20260506114112 13 40 0.0 0.0 0.43 3.71 2.95 1 1004.3
20260506113112 13 40 0.0 0.0 0.33 3.63 2.84 1 1004.3
20260506112112 13 40 0.0 0.0 0.23 3.53 2.74 1 1004.3
20260506111112 13 40 0.0 0.0 0.15 3.43 2.64 1 1004.3
20260506110112 13 40 0.0 0.0 0.03 3.30 2.51 1 1004.3
20260506105112 13 40 0.0 8.0 0.00 3.28 2.49 1 1004.2
20260506104112 13 36 0.0 9.7 0.00 3.28 2.49 1 1004.2
20260506103111 13 36 3.2 9.7 0.00 3.28 2.49 1 1004.3
20260506102111 13 20 1.6 6.4 0.00 3.28 2.49 1 1004.3
20260506101111 13 20 1.6 8.0 0.00 3.28 2.49 1 1004.2
20260506100111 13 13 0.0 0.0 0.00 3.28 2.49 1 1004.2
20260506095111 12 13 0.0 0.0 0.00 3.28 2.49 1 1004.1
20260506094111 13 13 0.0 0.0 0.03 3.28 2.49 1 1004.2
20260506093111 12 13 0.0 0.0 0.03 3.28 2.49 1 1004.1
20260506092111 13 13 1.6 6.4 0.03 3.28 2.49 1 1004.0
20260506091111 12 13 0.0 0.0 0.05 3.28 2.49 1 1004.1
20260506090110 12 13 0.0 0.0 0.05 3.28 2.49 1 1004.1
20260506085110 12 13 0.0 0.0 0.05 3.28 2.49 1 1004.2
20260506084110 11 13 0.0 0.0 0.05 3.25 2.49 1 1004.1
20260506083110 11 13 0.0 0.0 0.05 3.25 2.49 1 1004.0
20260506082110 11 13 0.0 0.0 0.08 3.25 2.49 1 1003.9
20260506081110 11 13 0.0 0.0 0.05 3.23 2.44 1 1003.9
20260506073110 11 13 1.6 6.4 0.05 3.20 2.41 1 1003.7
20260506072110 11 13 0.0 0.0 0.05 3.17 2.39 1 1003.7
20260506070109 11 13 0.0 0.0 0.05 3.15 2.39 1 1003.7
20260506062109 11 13 0.0 0.0 0.03 3.15 2.36 1 1003.8
20260506061109 11 13 0.0 0.0 0.03 3.15 2.36 1 1003.8
20260506060109 11 13 0.0 0.0 0.00 3.12 2.34 1 1003.7
20260506050113 11 13 0.0 0.0 0.03 3.12 2.34 1 1003.7
20260506045113 11 13 0.0 0.0 0.03 3.12 2.34 1 1003.8
20260506044113 11 13 0.0 0.0 0.03 3.12 2.34 1 1003.9
20260506043113 11 13 0.0 0.0 0.05 3.12 2.34 1 1003.9
20260506042113 11 13 0.0 0.0 0.05 3.10 2.31 1 1004.0
20260506041113 11 13 0.0 0.0 0.13 3.10 2.31 1 1003.9
20260506040112 11 13 0.0 0.0 0.20 3.10 2.31 1 1003.9
20260506034113 11 13 0.0 4.8 0.36 3.12 2.31 1 1003.9
20260506033112 11 13 0.0 0.0 0.36 3.07 2.29 1 1003.9
20260506032112 11 13 0.0 0.0 0.43 3.05 2.26 1 1003.9
20260506031112 11 13 0.0 0.0 0.43 3.00 2.21 1 1004.1
20260506025112 11 13 0.0 0.0 0.43 2.90 2.08 1 1004.4
20260506024112 11 13 0.0 0.0 0.41 2.77 1.96 1 1004.5
20260506023112 11 13 0.0 0.0 0.53 2.74 1.93 1 1004.6
20260506022112 11 13 0.0 0.0 0.58 2.67 1.83 1 1004.7
20260506021111 11 13 0.0 0.0 0.56 2.59 1.75 1 1004.7
20260506015111 11 13 0.0 0.0 0.58 2.46 1.65 1 1004.7
20260506014111 11 13 0.0 0.0 0.51 2.39 1.55 1 1004.8
20260506013111 11 13 0.0 0.0 0.41 2.21 1.37 1 1004.9
20260506012111 11 13 0.0 0.0 0.33 2.08 1.27 1 1004.8
20260506011111 11 13 0.0 0.0 0.36 2.03 1.19 1 1004.9
20260506010111 11 13 0.0 0.0 0.36 1.96 1.14 1 1004.9
20260506004111 12 13 0.0 0.0 0.36 1.85 1.04 1 1005.2
20260506003110 12 13 0.0 0.0 0.33 1.80 0.99 1 1005.2
20260506002111 12 13 0.0 0.0 0.33 1.75 0.91 1 1005.3
20260506001110 12 13 0.0 0.0 0.36 1.65 0.84 1 1005.4
20260506000110 12 13 0.0 0.0 0.43 1.60 0.79 1 1005.5
20260505234110 12 13 0.0 0.0 0.56 1.50 0.69 1 1005.7
20260505233110 12 13 0.0 0.0 0.58 1.45 0.64 1 1005.7
20260505232110 12 13 0.0 0.0 0.56 1.42 0.61 1 1005.7
20260505231110 12 13 0.0 0.0 0.46 1.30 0.48 1 1005.9
20260505230110 12 13 0.0 0.0 0.33 1.17 0.36 1 1005.9
20260505225109 12 13 0.0 0.0 0.18 0.99 0.15 1 1005.9
20260505224109 12 13 0.0 0.0 0.15 0.94 0.13 1 1005.9
20260505223109 12 13 0.0 0.0 0.13 0.89 0.05 1 1005.9
20260505222109 12 13 0.0 0.0 0.13 0.86 0.05 1 1005.8
20260505221109 12 13 0.0 0.0 0.13 0.84 0.03 1 1005.9
20260505220109 12 13 0.0 0.0 0.15 0.84 0.03 1 1005.8
20260505215109 12 13 0.0 0.0 0.15 0.79 0.79 1 1005.9
20260505214114 12 13 0.0 0.0 0.18 0.79 0.79 1 1005.9
20260505213114 12 13 0.0 0.0 0.20 0.76 0.76 1 1006.0
20260505212114 12 13 0.0 0.0 0.23 0.74 0.74 1 1006.1
20260505211114 12 13 0.0 0.0 0.23 0.71 0.71 1 1006.1
20260505210114 12 13 0.0 0.0 0.23 0.69 0.69 1 1006.1
20260505205113 12 13 0.0 0.0 0.23 0.64 0.64 1 1006.1
20260505204113 12 13 0.0 0.0 0.23 0.61 0.61 1 1006.0
20260505203113 12 13 1.6 8.0 0.23 0.56 0.56 1 1006.0
20260505202113 12 13 0.0 4.8 0.20 0.51 0.51 1 1006.1
20260505201113 12 13 0.0 0.0 0.15 0.48 0.48 1 1006.1
20260505200113 12 13 0.0 0.0 0.13 0.43 0.43 1 1006.2
20260505195113 12 13 0.0 0.0 0.10 0.48 0.41 1 1006.2
20260505193113 13 13 0.0 0.0 0.05 0.43 0.33 1 1006.2
20260505192112 13 13 0.0 0.0 0.05 0.41 0.33 1 1006.2
20260505191112 13 13 0.0 0.0 0.05 0.41 0.33 1 1006.2
20260505190112 13 13 0.0 0.0 0.08 0.41 0.33 1 1006.1
20260505185112 13 13 0.0 4.8 0.05 0.61 0.30 1 1005.9
20260505184112 13 14 0.0 6.4 0.10 0.61 0.30 1 1006.0
20260505183112 13 14 0.0 0.0 0.08 0.61 0.28 1 1006.0
20260505182112 13 14 0.0 16.1 0.13 0.61 0.28 1 1006.0
20260505180112 13 26 0.0 6.4 0.13 0.56 0.23 1 1006.0
20260505175112 13 28 1.6 8.0 0.15 0.66 0.23 1 1005.9
20260505174111 13 19 0.0 0.0 0.15 0.61 0.20 1 1006.0
20260505173111 13 5 1.6 14.5 0.15 0.61 0.20 1 1005.9
20260505172111 13 53 1.6 8.0 0.13 0.58 0.15 1 1006.0
20260505170111 14 53 1.6 8.0 0.08 0.53 0.13 1 1006.3
20260505165111 15 53 3.2 11.3 0.05 0.51 0.08 1 1006.3
20260505164111 15 56 0.0 0.0 0.00 0.46 0.05 1 1006.4
20260505163110 15 56 1.6 8.0 0.00 0.46 0.05 1 1006.5
20260505161110 16 52 1.6 9.7 0.00 0.46 0.05 1 1006.6
20260505160110 16 54 0.0 4.8 0.00 0.46 0.05 1 1006.6
20260505153110 16 36 1.6 11.3 0.00 0.46 0.05 1 1006.8
20260505152110 16 16 6.4 16.1 0.00 0.46 0.05 1 1006.7
20260505151110 16 61 6.4 16.1 0.00 0.46 0.05 1 1006.6
20260505150110 16 55 4.8 17.7 0.00 0.46 0.05 1 1006.8
20260505140109 18 336 0.0 4.8 0.00 0.46 0.05 10 1007.2